Lancaster, SC

2:11 PM EDT on June 27, 2017 (GMT -0400)
Lancaster County-McWhirter

Weather History for KLKR - September, 2012

Change the Weather History Date:

Sunday, September 30, 2012

  Actual Average (KUZA) Record (KUZA)
Temperature  
Mean Temperature 67 °F -  
Max Temperature 75 °F 76 °F 89 °F (1954)
Min Temperature 59 °F 56 °F 37 °F (1967)
Cooling Degree Days 2    
Growing Degree Days 17 (Base 50)    
Moisture  
Dew Point 63 °F    
Average Humidity 91    
Maximum Humidity 100    
Minimum Humidity 61    
Precipitation  
Precipitation 0.00 in - - ()
Sea Level Pressure  
Sea Level Pressure 29.90 in    
Wind  
Wind Speed 3 mph (NE)    
Max Wind Speed 8 mph    
Max Gust Speed -    
Visibility 8 miles    
Events Rain    
Averages and records for this station are not official NWS values.
T = Trace of Precipitation, MM = Missing Value Source: NWS Daily Summary

Daily Weather History Graph

Daily Weather History Graph

Search for Another Location

Airport or City:

Trip Planner

Search our weather history database for the weather conditions in past years. The results will help you decide how hot, cold, wet, or windy it might be!

Date:

Astronomy

Sep. 30, 2012 Rise Set
Actual Time 7:17 AM EDT 7:08 PM EDT
Civil Twilight 6:52 AM EDT 7:33 PM EDT
Nautical Twilight 6:23 AM EDT 8:02 PM EDT
Astronomical Twilight 5:53 AM EDT 8:31 PM EDT
Moon 7:15 PM EDT (9/30) 7:43 AM EDT (9/30)
Length of Visible Light 12h 40m
Length of Day
11h 50m
Full, 100% of the Moon is Illuminated
Sep 30
Full
Oct 8
Last Quarter
Oct 15
New
Oct 21
First Quarter
Oct 29
Full

Hourly Weather History & Observations

Time (EDT) Temp. Dew Point Humidity Pressure Visibility Wind Dir Wind Speed Gust Speed Precip Events Conditions
12:15 AM 66.2 °F 66.2 °F 100% 29.91 in 3.0 mi ENE 3.5 mph - N/A   Mostly Cloudy
12:35 AM 64.4 °F 64.4 °F 100% 29.91 in 2.5 mi Calm Calm - N/A   Partly Cloudy
12:55 AM 64.4 °F 64.4 °F 100% 29.91 in 2.5 mi Calm Calm - N/A   Clear
1:15 AM 64.4 °F 64.4 °F 100% 29.91 in 1.8 mi North 3.5 mph - N/A   Clear
1:55 AM 64.4 °F 64.4 °F 100% 29.91 in 7.0 mi NNE 3.5 mph - N/A   Partly Cloudy
2:15 AM 64.4 °F 64.4 °F 100% 29.91 in 4.0 mi NNE 3.5 mph - N/A   Mostly Cloudy
2:35 AM 64.4 °F 64.4 °F 100% 29.91 in 4.0 mi Calm Calm - N/A   Scattered Clouds
2:55 AM 64.4 °F 64.4 °F 100% 29.90 in 6.0 mi NE 4.6 mph - N/A   Partly Cloudy
3:15 AM 64.4 °F 64.4 °F 100% 29.90 in 8.0 mi NNE 6.9 mph - N/A   Mostly Cloudy
3:35 AM 64.4 °F 64.4 °F 100% 29.90 in 8.0 mi NNE 8.1 mph - N/A   Overcast
3:55 AM 64.4 °F 64.4 °F 100% 29.91 in 6.0 mi NNE 6.9 mph - N/A   Overcast
4:15 AM 64.4 °F 64.4 °F 100% 29.91 in 6.0 mi North 6.9 mph - N/A   Overcast
4:35 AM 64.4 °F 64.4 °F 100% 29.91 in 5.0 mi NNE 5.8 mph - N/A   Overcast
4:55 AM 64.4 °F 64.4 °F 100% 29.91 in 4.0 mi NE 3.5 mph - N/A   Overcast
5:15 AM 64.4 °F 64.4 °F 100% 29.91 in 8.0 mi North 5.8 mph - N/A   Overcast
5:35 AM 64.4 °F 64.4 °F 100% 29.91 in 10.0 mi NE 6.9 mph - N/A   Overcast
5:55 AM 62.6 °F 62.6 °F 100% 29.91 in 10.0 mi NNE 4.6 mph - N/A   Scattered Clouds
6:15 AM 62.6 °F 62.6 °F 100% 29.91 in 7.0 mi Calm Calm - N/A   Clear
6:35 AM 60.8 °F 60.8 °F 100% 29.91 in 5.0 mi NE 3.5 mph - N/A   Partly Cloudy
6:55 AM 59.0 °F 59.0 °F 100% 29.92 in 4.0 mi NNE 3.5 mph - N/A   Partly Cloudy
7:15 AM 59.0 °F 59.0 °F 100% 29.92 in 4.0 mi Calm Calm - N/A   Clear
7:35 AM 59.0 °F 59.0 °F 100% 29.93 in 3.0 mi NNE 3.5 mph - N/A   Partly Cloudy
7:55 AM 59.0 °F 59.0 °F 100% 29.93 in 2.5 mi Calm Calm - N/A   Clear
8:15 AM 59.0 °F 59.0 °F 100% 29.93 in 3.0 mi NE 3.5 mph - N/A   Clear
8:35 AM 59.0 °F 59.0 °F 100% 29.93 in 3.0 mi NE 4.6 mph - N/A   Clear
8:55 AM 59.0 °F 59.0 °F 100% 29.93 in 5.0 mi NE 5.8 mph - N/A   Clear
9:15 AM 60.8 °F 60.8 °F 100% 29.93 in 6.0 mi NNE 6.9 mph - N/A   Scattered Clouds
9:35 AM 62.6 °F 62.6 °F 100% 29.94 in 7.0 mi ENE 3.5 mph - N/A   Mostly Cloudy
9:55 AM 62.6 °F 62.6 °F 100% 29.94 in 10.0 mi NE 4.6 mph - N/A   Mostly Cloudy
10:15 AM 62.6 °F 62.6 °F 100% 29.94 in 10.0 mi ENE 4.6 mph - N/A   Partly Cloudy
10:35 AM 66.2 °F 62.6 °F 88% 29.93 in 10.0 mi NE 5.8 mph - N/A   Clear
10:55 AM 66.2 °F 62.6 °F 88% 29.93 in 10.0 mi NE 5.8 mph - N/A   Clear
11:15 AM 68.0 °F 62.6 °F 83% 29.93 in 10.0 mi North 3.5 mph - N/A   Clear
11:35 AM 69.8 °F 62.6 °F 78% 29.94 in 10.0 mi East 3.5 mph - N/A   Clear
11:55 AM 71.6 °F 62.6 °F 73% 29.93 in 10.0 mi North 5.8 mph - N/A   Partly Cloudy
12:15 PM 69.8 °F 60.8 °F 73% 29.93 in 10.0 mi NE 4.6 mph - N/A   Clear
12:35 PM 69.8 °F 60.8 °F 73% 29.93 in 10.0 mi NNE 3.5 mph - N/A   Clear
12:55 PM 71.6 °F 60.8 °F 69% 29.92 in 10.0 mi North 5.8 mph - N/A   Clear
1:15 PM 73.4 °F 59.0 °F 61% 29.92 in 10.0 mi NE 4.6 mph - N/A   Clear
1:35 PM 73.4 °F 59.0 °F 61% 29.92 in 10.0 mi NNE 3.5 mph - N/A   Clear
1:55 PM 73.4 °F 59.0 °F 61% 29.90 in 10.0 mi ENE 3.5 mph - N/A   Clear
2:15 PM 73.4 °F 60.8 °F 65% 29.90 in 10.0 mi Calm Calm - N/A   Scattered Clouds
2:35 PM 73.4 °F 59.0 °F 61% 29.89 in 10.0 mi SSE 3.5 mph - N/A   Mostly Cloudy
2:55 PM 73.4 °F 62.6 °F 69% 29.88 in 10.0 mi ESE 3.5 mph - N/A   Mostly Cloudy
3:15 PM 73.4 °F 62.6 °F 69% 29.88 in 10.0 mi SE 4.6 mph - N/A   Mostly Cloudy
3:35 PM 75.2 °F 62.6 °F 65% 29.87 in 10.0 mi South 3.5 mph - N/A   Partly Cloudy
3:55 PM 73.4 °F 62.6 °F 69% 29.87 in 10.0 mi ESE 3.5 mph - N/A   Clear
4:15 PM 73.4 °F 62.6 °F 69% 29.87 in 10.0 mi Calm Calm - N/A   Clear
4:35 PM 71.6 °F 64.4 °F 78% 29.87 in 10.0 mi Calm Calm - N/A   Mostly Cloudy
4:55 PM 71.6 °F 66.2 °F 83% 29.86 in 10.0 mi SE 3.5 mph - N/A   Mostly Cloudy
5:15 PM 71.6 °F 66.2 °F 83% 29.86 in 10.0 mi South 3.5 mph - N/A   Partly Cloudy
5:35 PM 71.6 °F 66.2 °F 83% 29.86 in 10.0 mi SSE 4.6 mph - N/A   Clear
5:55 PM 71.6 °F 66.2 °F 83% 29.86 in 10.0 mi Calm Calm - N/A   Clear
6:15 PM 68.0 °F 66.2 °F 94% 29.87 in 10.0 mi Calm Calm - N/A   Clear
6:35 PM 68.0 °F 66.2 °F 94% 29.87 in 10.0 mi Calm Calm - N/A   Scattered Clouds
6:55 PM 68.0 °F 68.0 °F 100% 29.87 in 10.0 mi Calm Calm - N/A   Overcast
7:15 PM 66.2 °F 66.2 °F 100% 29.88 in 10.0 mi Calm Calm - N/A   Mostly Cloudy
7:35 PM 66.2 °F 66.2 °F 100% 29.88 in 10.0 mi Calm Calm - N/A   Partly Cloudy
7:55 PM 66.2 °F 66.2 °F 100% 29.87 in 10.0 mi Calm Calm - N/A   Partly Cloudy
8:15 PM 66.2 °F 66.2 °F 100% 29.87 in 10.0 mi Calm Calm - N/A   Clear
8:35 PM 66.2 °F 66.2 °F 100% 29.88 in 10.0 mi Calm Calm - N/A   Partly Cloudy
8:55 PM 66.2 °F 66.2 °F 100% 29.89 in 10.0 mi Calm Calm - N/A   Partly Cloudy
9:15 PM 66.2 °F 66.2 °F 100% 29.89 in 10.0 mi Calm Calm - N/A   Partly Cloudy
9:35 PM 66.2 °F 66.2 °F 100% 29.90 in 10.0 mi Calm Calm - N/A   Partly Cloudy
9:55 PM 64.4 °F 64.4 °F 100% 29.89 in 10.0 mi Calm Calm - N/A   Scattered Clouds
10:15 PM 64.4 °F 64.4 °F 100% 29.89 in 10.0 mi Calm Calm - N/A   Partly Cloudy
10:35 PM 64.4 °F 64.4 °F 100% 29.89 in 10.0 mi Calm Calm - N/A   Clear
10:55 PM 64.4 °F 64.4 °F 100% 29.89 in 10.0 mi Calm Calm - N/A   Clear
11:15 PM 64.4 °F 64.4 °F 100% 29.90 in 10.0 mi Calm Calm - N/A   Mostly Cloudy
11:35 PM 64.4 °F 64.4 °F 100% 29.90 in 9.0 mi Calm Calm - N/A   Overcast
11:55 PM 64.4 °F 64.4 °F 100% 29.89 in 3.0 mi Calm Calm - N/A Rain Light Rain